This is the latest recevied weather packets stored in our database for station/object IK1AMC-3. If no packets are shown the sender has not sent any weather packets the latest 1 day(s).
| Time | Temp. | Humidity | Pressure | Rain* | Wind** | Luminosity | Snow |
|---|---|---|---|---|---|---|---|
| 1777757798 | 15.56° C | 53% | 1020.9 hPa | - | - | - | - |
| 1777756597 | 15.56° C | 51% | 1021 hPa | - | - | - | - |
| 1777755395 | 16.11° C | 49% | 1021.2 hPa | - | - | - | - |
| 1777754194 | 16.67° C | 46% | 1021.1 hPa | - | - | - | - |
| 1777752993 | 16.67° C | 46% | 1021.1 hPa | - | - | - | - |
| 1777751791 | 17.22° C | 45% | 1021.1 hPa | - | - | - | - |
| 1777750590 | 17.78° C | 44% | 1020.9 hPa | - | - | - | - |
| 1777749389 | 18.33° C | 43% | 1020.7 hPa | - | - | - | - |
| 1777748188 | 18.33° C | 44% | 1020.5 hPa | - | - | - | - |
| 1777746987 | 19.44° C | 48% | 1020.3 hPa | - | - | - | - |
| 1777745785 | 19.44° C | 50% | 1020.2 hPa | - | - | - | - |
| 1777744584 | 20° C | 47% | 1020.2 hPa | - | - | - | - |
| 1777743382 | 20° C | 41% | 1020.2 hPa | - | - | - | - |
| 1777742181 | 21.11° C | 33% | 1020.2 hPa | - | - | - | - |
| 1777740980 | 21.11° C | 34% | 1020.3 hPa | - | - | - | - |
| 1777739779 | 21.67° C | 30% | 1020.3 hPa | - | - | - | - |
| 1777738577 | 22.22° C | 29% | 1020.5 hPa | - | - | - | - |
| 1777737376 | 22.22° C | 29% | 1020.5 hPa | - | - | - | - |
| 1777736175 | 23.33° C | 28% | 1020.8 hPa | - | - | - | - |
| 1777734974 | 23.33° C | 29% | 1021.1 hPa | - | - | - | - |
| 1777733772 | 22.78° C | 28% | 1021.2 hPa | - | - | - | - |
| 1777732571 | 23.33° C | 28% | 1021.5 hPa | - | - | - | - |
| 1777731370 | 22.78° C | 29% | 1021.8 hPa | - | - | - | - |
| 1777730168 | 22.78° C | 29% | 1022 hPa | - | - | - | - |
| 1777728967 | 23.33° C | 30% | 1022.4 hPa | - | - | - | - |
* Rain since midnight (hover to see other rain measurements)
** Current wind speed in m/s (hover to see current wind gust speed)